Whitefield, NH

12:59 AM EST on February 09, 2016 (GMT -0500)
Mount Washington Regional

Weather History for KHIE - March, 2014

Change the Weather History Date:

Wednesday, March 19, 2014

  Actual Average (K1V4) Record (K1V4)
Temperature  
Mean Temperature 20 °F 32 °F  
Max Temperature 39 °F 43 °F 75 °F (2012)
Min Temperature 1 °F 21 °F -18 °F (1967)
Degree Days  
Heating Degree Days 45 33  
Month to date heating degree days 711  
Since 1 July heating degree days 6435  
Cooling Degree Days 0 0  
Month to date cooling degree days 0  
Year to date cooling degree days 0  
Moisture  
Dew Point 14 °F    
Average Humidity 67    
Maximum Humidity 86    
Minimum Humidity 23    
Precipitation  
Precipitation 0.04 in 0.09 in 1.00 in (1896)
Month to date precipitation 1.48  
Year to date precipitation 6.16  
Sea Level Pressure  
Sea Level Pressure 30.14 in    
Wind  
Wind Speed 13 mph (ESE)    
Max Wind Speed 22 mph    
Max Gust Speed 33 mph    
Visibility 5 miles    
Events Snow    
T = Trace of Precipitation, MM = Missing Value Source: NWS Daily Summary

Daily Weather History Graph

Daily Weather History Graph

Search for Another Location

Airport or City:

Trip Planner

Search our weather history database for the weather conditions in past years. The results will help you decide how hot, cold, wet, or windy it might be!

Date:

Astronomy

Mar. 19, 2014 Rise Set
Actual Time 6:51 AM EDT 6:57 PM EDT
Civil Twilight 6:22 AM EDT 7:26 PM EDT
Nautical Twilight 5:48 AM EDT 8:00 PM EDT
Astronomical Twilight 5:13 AM EDT 8:35 PM EDT
Moon 10:20 PM EDT (3/19) 8:08 AM EDT (3/19)
Length of Visible Light 13h 04m
Length of Day
12h 06m
Waning Gibbous, 91% of the Moon is Illuminated
Mar 19
Waning Gibbous
Mar 23
Last Quarter
Mar 30
New
Apr 7
First Quarter
Apr 15
Full

Hourly Weather History & Observations

Time (EDT) Temp. Windchill Dew Point Humidity Pressure Visibility Wind Dir Wind Speed Gust Speed Precip Events Conditions
12:52 AM 9.0 °F -5.9 °F 3.0 °F 77% 30.34 in 10.0 mi ESE 11.5 mph - N/A   Clear
1:52 AM 6.1 °F -8.7 °F 1.0 °F 80% 30.34 in 10.0 mi East 10.4 mph - N/A   Clear
2:52 AM 5.0 °F -10.0 °F -0.0 °F 80% 30.33 in 10.0 mi ESE 10.4 mph - N/A   Clear
3:52 AM 3.0 °F -12.5 °F -2.0 °F 80% 30.32 in 9.0 mi ESE 10.4 mph - N/A   Clear
4:52 AM 3.9 °F -11.3 °F -0.9 °F 80% 30.34 in 8.0 mi ESE 10.4 mph - N/A   Clear
5:52 AM 1.9 °F -13.8 °F -2.9 °F 80% 30.34 in 10.0 mi East 10.4 mph - N/A   Clear
6:52 AM 1.0 °F -15.8 °F -4.0 °F 79% 30.35 in 10.0 mi ESE 11.5 mph - N/A   Clear
7:52 AM 3.9 °F -12.2 °F -0.0 °F 84% 30.36 in 3.0 mi ESE 11.5 mph - N/A   Clear
7:56 AM 6.1 °F -9.5 °F 1.0 °F 80% 30.28 in 1.8 mi ESE 11.5 mph - N/A   Haze
8:06 AM 7.0 °F -8.3 °F 1.9 °F 80% 30.28 in 3.0 mi ESE 11.5 mph - N/A   Haze
8:11 AM 8.1 °F -7.0 °F 1.9 °F 76% 30.28 in 1.0 mi ESE 11.5 mph - N/A   Haze
8:22 AM 10.0 °F -4.5 °F 3.9 °F 76% 30.27 in 2.0 mi East 11.5 mph - N/A   Haze
8:35 AM 12.0 °F -1.3 °F 5.0 °F 73% 30.27 in 4.0 mi ESE 10.4 mph - N/A   Haze
8:52 AM 15.1 °F 4.2 °F 5.0 °F 64% 30.34 in 6.0 mi ESE 8.1 mph - N/A   Haze
9:52 AM 21.9 °F 11.7 °F 3.9 °F 46% 30.32 in 10.0 mi ESE 9.2 mph - N/A   Clear
10:52 AM 28.0 °F 20.8 °F 7.0 °F 41% 30.30 in 8.0 mi ESE 6.9 mph - N/A   Clear
11:52 AM 36.0 °F 28.5 °F 5.0 °F 27% 30.27 in 10.0 mi East 10.4 mph - N/A   Clear
12:52 PM 39.0 °F 29.3 °F 3.9 °F 23% 30.24 in 10.0 mi SE 19.6 mph 26.5 mph N/A   Mostly Cloudy
1:52 PM 37.9 °F 27.3 °F 7.0 °F 28% 30.20 in 10.0 mi SE 21.9 mph 31.1 mph N/A   Overcast
2:52 PM 37.0 °F 27.7 °F 9.0 °F 31% 30.18 in 10.0 mi SE 16.1 mph 25.3 mph N/A   Overcast
3:52 PM 37.0 °F 26.2 °F 12.9 °F 37% 30.16 in 10.0 mi SE 21.9 mph 28.8 mph N/A   Overcast
4:52 PM 37.0 °F 26.7 °F 16.0 °F 42% 30.13 in 10.0 mi SE 19.6 mph 24.2 mph N/A   Overcast
5:52 PM 36.0 °F 27.1 °F 17.1 °F 46% 30.13 in 10.0 mi SE 13.8 mph 26.5 mph N/A   Overcast
6:52 PM 34.0 °F 22.7 °F 21.9 °F 61% 30.10 in 10.0 mi SE 19.6 mph 29.9 mph 0.00 in   Overcast
7:52 PM 34.0 °F 25.5 °F 23.0 °F 64% 30.09 in 10.0 mi SE 11.5 mph 26.5 mph N/A   Overcast
8:34 PM 33.1 °F 23.4 °F 25.0 °F 72% 30.03 in 1.8 mi SE 13.8 mph - 0.00 in Snow Light Snow
8:42 PM 32.0 °F 20.8 °F 25.0 °F 75% 30.03 in 1.0 mi SE 17.3 mph 24.2 mph 0.00 in Snow Light Snow
8:52 PM 32.0 °F 22.5 °F 25.0 °F 75% 30.08 in 1.2 mi SE 12.7 mph 23.0 mph 0.00 in Snow Light Snow
9:16 PM 32.0 °F 23.6 °F 25.0 °F 75% 30.01 in 0.8 mi ESE 10.4 mph - 0.02 in Snow Light Snow
9:26 PM 32.0 °F 22.5 °F 25.0 °F 75% 30.01 in 1.2 mi ESE 12.7 mph - 0.02 in Snow Light Snow
9:34 PM 33.1 °F 23.9 °F 25.0 °F 72% 30.00 in 3.0 mi SE 12.7 mph 18.4 mph 0.02 in Snow Light Snow
9:49 PM 33.8 °F 26.4 °F 24.8 °F 70% 29.99 in 5.0 mi SE 9.2 mph 24.2 mph 0.02 in Snow Light Snow
9:52 PM 33.1 °F 23.9 °F 24.1 °F 70% 30.04 in 5.0 mi SE 12.7 mph 24.2 mph 0.02 in Snow Light Snow
9:59 PM 33.1 °F 23.0 °F 25.0 °F 72% 29.99 in 1.8 mi SE 15.0 mph 27.6 mph 0.00 in Snow Light Snow
10:13 PM 33.1 °F 23.0 °F 24.1 °F 70% 29.99 in 3.0 mi SE 15.0 mph 27.6 mph 0.00 in Snow Light Snow
10:23 PM 33.1 °F 23.0 °F 24.1 °F 70% 29.98 in 2.5 mi SE 15.0 mph 24.2 mph 0.00 in Snow Light Snow
10:32 PM 32.0 °F 21.6 °F 24.1 °F 73% 29.97 in 1.0 mi SE 15.0 mph 24.2 mph 0.00 in Snow Light Snow
10:40 PM 30.9 °F 20.2 °F 26.1 °F 82% 29.97 in 0.5 mi SE 15.0 mph 27.6 mph 0.01 in Snow Snow
10:47 PM 30.2 °F 19.8 °F 26.6 °F 86% 29.96 in 0.5 mi SE 13.8 mph 24.2 mph 0.01 in Snow Snow
10:52 PM 30.9 °F 19.1 °F 26.1 °F 82% 30.01 in 0.8 mi SE 18.4 mph 25.3 mph 0.02 in Snow Light Snow
11:06 PM 30.9 °F 19.8 °F 25.0 °F 79% 29.95 in 1.2 mi SE 16.1 mph 25.3 mph 0.00 in Snow Light Snow
11:11 PM 32.0 °F 21.6 °F 25.0 °F 75% 29.94 in 2.0 mi ESE 15.0 mph - 0.00 in Snow Light Snow
11:16 PM 32.0 °F 22.1 °F 25.0 °F 75% 29.94 in 4.0 mi ESE 13.8 mph - 0.00 in Snow Light Snow
11:52 PM 33.1 °F 20.9 °F 23.0 °F 66% 29.92 in 7.0 mi SE 21.9 mph 33.4 mph 0.00 in   Overcast